Regional Weather Roundup
Issued by NWS Little Rock, AR

Home | Current Version | Previous Version | Text Only | Print | Product List | Glossary On
Versions: 1 2 3 4 5 6 7 8 9 10 11 12 13 14 15 16 17 18 19 20 21 22 23 24 25 26 27 28 29 30 31 32 33 34 35 36 37 38 39 40 41 42 43 44 45 46 47 48 49 50
000
ASUS44 KLZK 011505
RWRLZK

WEATHER ROUNDUP FOR ARKANSAS
NATIONAL WEATHER SERVICE LITTLE ROCK AR
1000 AM CDT WED JUL 01 2015

NOTE: "FAIR" INDICATES FEW OR NO CLOUDS BELOW 12,000 FEET WITH NO
SIGNIFICANT WEATHER AND/OR OBSTRUCTIONS TO VISIBILITY.

ARZ001-003-010-029-011600-
NORTHWEST ARKANSAS

CITY           SKY/WX    TMP DP  RH WIND       PRES   REMARKS
FAYETTEVILLE     N/A     80  72  76 VRB3      29.98R
FORT SMITH     PTSUNNY   82  69  64 SW9       29.94S HX  85
HARRISON       CLOUDY    74  69  85 SE3       30.02R
BENTONVILLE    PTSUNNY   79  70  73 SW5       29.99R
ROGERS         PTSUNNY   79  72  79 SW7       30.00R
SILOAM SPGS    CLOUDY    81  68  65 SW9       29.98R
HIGHFILL       CLOUDY    79  73  82 CALM      29.98R
SPRINGDALE     PTSUNNY   81  72  74 W6        30.01R
$$

ARZ004-005-016-011600-
NORTH CENTRAL ARKANSAS

CITY           SKY/WX    TMP DP  RH WIND       PRES   REMARKS
BATESVILLE     CLOUDY    77  70  78 CALM      30.00R
FLIPPIN        CLOUDY    70  66  88 CALM      29.98R
MTN HOME       LGT RAIN  69  67  93 CALM      29.99R
$$

ARZ040-041-011600-
WEST CENTRAL ARKANSAS

CITY           SKY/WX    TMP DP  RH WIND       PRES   REMARKS
MENA           MOSUNNY   82  70  65 SW9       30.01S HX  86
MOUNT IDA      MOSUNNY   82  69  64 VRB6      29.99R HX  85
$$

ARZ009-017-025-026-028-011600-
NORTHEAST ARKANSAS

CITY           SKY/WX    TMP DP  RH WIND       PRES   REMARKS
JONESBORO      CLOUDY    79  71  76 N8        29.98R
NEWPORT        CLOUDY    79  74  84 S8        30.01R
WALNUT RIDGE   CLOUDY    73  68  83 N12       29.98S
BLYTHEVILLE    CLOUDY    78  75  90 NW15      29.98R
NW BLYTHEVILLE CLOUDY    79  72  78 NW9       29.98R
$$

ARZ022-023-033-042-044-011600-
CENTRAL ARKANSAS

CITY           SKY/WX    TMP DP  RH WIND       PRES   REMARKS
LITTLE ROCK    PTSUNNY   81  70  69 SW7       30.00R
N LITTLE ROCK  PTSUNNY   79  73  84 S6        30.00R
JACKSONVILLE   MOSUNNY   80  72  77 S6        29.99R
SEARCY         CLOUDY    78  73  84 CALM      30.02R
HOT SPRINGS      N/A    N/A N/A N/A MISG      30.02R
RUSSELLVILLE   PTSUNNY   81  73  76 CALM      29.96R HX  86
CLINTON        FAIR      77  73  88 CALM      30.00R
$$

ARZ036-011600-
EAST ARKANSAS

CITY           SKY/WX    TMP DP  RH WIND       PRES   REMARKS
WEST MEMPHIS   CLOUDY    79  74  84 SW6       29.99R
$$

ARZ050-053-066-070-073-011600-
SOUTHWEST ARKANSAS

CITY           SKY/WX    TMP DP  RH WIND       PRES   REMARKS
ARKADELPHIA    FAIR      83  74  74 SW14      30.02R HX  89
CAMDEN         MOSUNNY   82  70  65 NE8       30.02S HX  86
TEXARKANA      SUNNY     82  71  69 SW15      30.02S HX  86
EL DORADO      MOSUNNY   80  70  71 SW12      30.04F
DE QUEEN       MOSUNNY   80  73  79 SW8       29.99S
$$

ARZ056-057-069-011600-
SOUTHEAST ARKANSAS

CITY           SKY/WX    TMP DP  RH WIND       PRES   REMARKS
PINE BLUFF     MOSUNNY   81  72  74 W10G17    30.01S HX  85
STUTTGART      MOSUNNY   81  72  74 SW16      30.00R
MONTICELLO     PTSUNNY   79  72  79 SW12      30.02F

$$





USA.gov is the U.S. government's official web portal to all federal, state and local government web resources and services.